Date String (YYYY-MM-DD hh:mm:ss) UTC,Instrument flags,Ambient pressure (hPa),Sample flow (lpm),Bypass flow (lpm),Sample temperature (°C),Ambient temperature (°C),ASC tube jacket temperature (°C),LED temperature (°C),Box temperature (°C),Sample RH (%),Span deviation,Mass concentration (μg/m³),Mass concentration (μg/m³),Mass concentration (μg/m³)
DateTimeUTC,F1_M11,P_M11,Q1_M11,Q2_M11,T1_M11,T2_M11,T3_M11,T4_M11,T5_M11,U1_M11,ZSPAN_M11,X0_M11,X2_M11,X1_M11
2023-04-09 01:00:00,,0830.0,5.01,0.00,26.4,24.9,00.0,34.7,28.0,11.6,0000.0,0008.44,0003.45,0001.72
2023-04-09 01:01:00,,0830.0,5.00,0.00,26.4,24.9,00.0,34.7,28.1,11.6,0000.0,0008.61,0003.47,0001.72
2023-04-09 01:02:00,,0830.0,5.00,0.00,26.4,25.0,00.0,34.7,28.0,11.5,0000.0,0008.90,0003.46,0001.73
2023-04-09 01:03:00,,0830.0,5.00,0.00,26.5,25.0,00.0,34.7,28.1,11.5,0000.0,0008.90,0003.44,0001.73
2023-04-09 01:04:00,,0830.0,5.00,0.00,26.5,25.0,00.0,34.7,28.1,11.4,0000.0,0008.82,0003.42,0001.73
2023-04-09 01:05:00,,0830.0,5.00,0.00,26.5,25.0,00.0,34.7,28.1,11.3,0000.0,0009.03,0003.40,0001.72
2023-04-09 01:06:00,,0830.0,4.99,0.00,26.5,25.0,00.0,34.8,28.1,11.3,0000.0,0008.89,0003.42,0001.73
2023-04-09 01:07:00,,0830.0,5.00,0.00,26.5,25.0,00.0,34.8,28.1,11.3,0000.0,0009.02,0003.44,0001.73
2023-04-09 01:08:00,,0830.0,4.99,0.00,26.5,25.0,00.0,34.8,28.1,11.1,0000.0,0008.66,0003.39,0001.72
2023-04-09 01:09:00,,0830.0,5.00,0.00,26.5,25.0,00.0,34.8,28.1,10.9,0000.0,0008.55,0003.37,0001.72
2023-04-09 01:10:00,,0830.0,5.01,0.00,26.5,25.0,00.0,34.8,28.1,10.9,0000.0,0008.93,0003.37,0001.72
2023-04-09 01:11:00,,0830.0,5.00,0.00,26.5,25.0,00.0,34.8,28.1,10.8,0000.0,0008.69,0003.28,0001.71
2023-04-09 01:12:00,,0830.1,5.00,0.00,26.5,24.9,00.0,34.8,28.1,10.8,0000.0,0008.54,0003.26,0001.72
2023-04-09 01:13:00,,0830.0,5.00,0.00,26.5,24.9,00.0,34.8,28.0,10.9,0000.0,0008.51,0003.24,0001.70
2023-04-09 01:14:00,,0830.0,4.99,0.00,26.5,24.9,00.0,34.8,28.0,10.9,0000.0,0008.80,0003.24,0001.68
2023-04-09 01:15:00,,0830.1,5.00,0.00,26.5,24.9,00.0,34.8,28.0,11.0,0000.0,0008.89,0003.27,0001.68
2023-04-09 01:16:00,,0830.0,5.00,0.00,26.5,24.9,00.0,34.8,28.0,10.9,0000.0,0009.23,0003.25,0001.69
2023-04-09 01:17:00,,0830.1,5.00,0.00,26.5,24.9,00.0,34.8,28.0,11.0,0000.0,0009.42,0003.23,0001.68
2023-04-09 01:18:00,,0830.0,5.01,0.00,26.5,24.9,00.0,34.8,28.0,11.0,0000.0,0009.15,0003.22,0001.69
2023-04-09 01:19:00,,0830.0,5.00,0.00,26.5,24.9,00.0,34.8,28.0,11.1,0000.0,0009.15,0003.22,0001.70
2023-04-09 01:20:00,,0830.0,5.00,0.00,26.5,24.9,00.0,34.8,28.0,10.9,0000.0,0009.25,0003.21,0001.70
2023-04-09 01:21:00,,0830.0,5.00,0.00,26.4,24.8,00.0,34.8,28.0,10.9,0000.0,0008.98,0003.21,0001.69
2023-04-09 01:22:00,,0830.1,5.00,0.00,26.4,24.8,00.0,34.8,28.0,10.9,0000.0,0008.86,0003.19,0001.69
2023-04-09 01:23:00,,0830.1,5.01,0.00,26.4,24.8,00.0,34.8,28.0,11.1,0000.0,0009.18,0003.17,0001.69
2023-04-09 01:24:00,,0830.2,5.00,0.00,26.4,24.8,00.0,34.8,28.0,11.1,0000.0,0008.92,0003.17,0001.69
2023-04-09 01:25:00,,0830.1,5.01,0.00,26.4,24.9,00.0,34.8,28.0,11.0,0000.0,0008.75,0003.16,0001.71
2023-04-09 01:26:00,,0830.1,5.00,0.00,26.4,24.9,00.0,34.8,28.0,10.9,0000.0,0008.61,0003.12,0001.70
2023-04-09 01:27:00,,0830.1,4.99,0.00,26.4,24.9,00.0,34.8,28.0,11.0,0000.0,0007.92,0003.05,0001.68
2023-04-09 01:28:00,,0830.2,4.99,0.00,26.4,24.9,00.0,34.8,28.0,11.0,0000.0,0008.35,0002.99,0001.66
2023-04-09 01:29:00,,0830.2,5.00,0.00,26.4,24.9,00.0,34.8,28.0,11.1,0000.0,0008.82,0003.00,0001.64
2023-04-09 01:30:00,,0830.2,5.00,0.00,26.4,24.9,00.0,34.8,28.1,11.1,0000.0,0008.86,0003.03,0001.62
2023-04-09 01:31:00,,0830.3,5.01,0.00,26.4,24.9,00.0,34.8,28.1,10.9,0000.0,0008.94,0003.12,0001.61
2023-04-09 01:32:00,,0830.2,5.00,0.00,26.4,24.9,00.0,34.8,28.1,10.9,0000.0,0008.98,0003.14,0001.63
2023-04-09 01:33:00,,0830.3,5.00,0.00,26.4,24.9,00.0,34.8,28.0,10.8,0000.0,0009.04,0003.14,0001.63
2023-04-09 01:34:00,,0830.2,4.99,0.00,26.4,24.9,00.0,34.8,28.0,10.8,0000.0,0009.32,0003.16,0001.62
2023-04-09 01:35:00,,0830.2,5.00,0.00,26.4,24.9,00.0,34.8,28.0,10.7,0000.0,0009.26,0003.15,0001.62
2023-04-09 01:36:00,,0830.2,5.00,0.00,26.4,24.9,00.0,34.8,28.1,10.8,0000.0,0009.16,0003.15,0001.62
2023-04-09 01:37:00,,0830.3,5.00,0.00,26.4,24.9,00.0,34.8,28.1,10.8,0000.0,0009.28,0003.22,0001.63
2023-04-09 01:38:00,,0830.2,5.00,0.00,26.4,24.9,00.0,34.8,28.0,10.7,0000.0,0009.62,0003.32,0001.64
2023-04-09 01:39:00,,0830.3,5.00,0.00,26.5,24.9,00.0,34.8,28.0,10.7,0000.0,0009.35,0003.38,0001.65
2023-04-09 01:40:00,,0830.3,5.01,0.00,26.5,24.9,00.0,34.8,28.0,10.8,0000.0,0009.19,0003.43,0001.67
2023-04-09 01:41:00,,0830.3,5.00,0.00,26.5,25.0,00.0,34.8,28.1,10.7,0000.0,0008.99,0003.40,0001.68
2023-04-09 01:42:00,,0830.4,4.99,0.00,26.5,24.9,00.0,34.8,28.0,10.7,0000.0,0008.73,0003.33,0001.68
2023-04-09 01:43:00,,0830.4,5.00,0.00,26.5,24.9,00.0,34.8,28.0,10.6,0000.0,0008.67,0003.31,0001.67
2023-04-09 01:44:00,,0830.5,4.99,0.00,26.4,24.9,00.0,34.8,28.0,10.6,0000.0,0008.67,0003.35,0001.66
2023-04-09 01:45:00,,0830.4,5.01,0.00,26.4,24.9,00.0,34.8,28.0,10.6,0000.0,0008.12,0003.33,0001.66
2023-04-09 01:46:00,,0830.5,5.00,0.00,26.4,24.9,00.0,34.8,28.0,10.6,0000.0,0007.87,0003.30,0001.65
2023-04-09 01:47:00,,0830.4,5.00,0.00,26.4,24.9,00.0,34.8,28.0,10.7,0000.0,0007.95,0003.30,0001.64
2023-04-09 01:48:00,,0830.6,5.00,0.00,26.4,24.9,00.0,34.8,27.9,10.7,0000.0,0007.95,0003.26,0001.63
2023-04-09 01:49:00,,0830.5,5.00,0.00,26.4,24.8,00.0,34.8,27.9,10.8,0000.0,0007.67,0003.17,0001.64
2023-04-09 01:50:00,,0830.6,5.00,0.00,26.4,24.8,00.0,34.8,27.8,10.6,0000.0,0007.25,0003.11,0001.64
2023-04-09 01:51:00,,0830.6,5.00,0.00,26.3,24.7,00.0,34.7,27.8,10.8,0000.0,0006.53,0003.09,0001.70
2023-04-09 01:52:00,,0830.6,5.00,0.00,26.3,24.6,00.0,34.7,27.7,10.8,0000.0,0006.48,0003.15,0001.81
2023-04-09 01:53:00,,0830.7,5.00,0.00,26.3,24.5,00.0,34.7,27.7,10.8,0000.0,0007.08,0003.25,0001.89
2023-04-09 01:54:00,,0830.7,5.00,0.00,26.2,24.5,00.0,34.7,27.7,10.9,0000.0,0007.52,0003.25,0001.93
2023-04-09 01:55:00,,0830.7,5.00,0.00,26.2,24.4,00.0,34.7,27.6,10.9,0000.0,0007.45,0003.24,0001.96
2023-04-09 01:56:00,,0830.7,5.00,0.00,26.2,24.4,00.0,34.7,27.6,11.0,0000.0,0007.56,0003.26,0002.00
2023-04-09 01:57:00,,0830.7,5.00,0.00,26.2,24.4,00.0,34.6,27.6,11.0,0000.0,0007.62,0003.27,0002.01
2023-04-09 01:58:00,,0830.7,5.00,0.00,26.1,24.3,00.0,34.6,27.6,10.9,0000.0,0007.55,0003.26,0002.02
2023-04-09 01:59:00,,0830.6,5.00,0.00,26.1,24.3,00.0,34.6,27.6,11.0,0000.0,0007.42,0003.25,0002.04
